sat.trackr.live / text

‹ back to catalog

STARLINK-4098

NORAD 53153 · 2022-083X

PAYLOAD ACTIVE UNKNOWN

§ Identity

Operator
Country
US
Launch date
2022-07-17
Launch site
AFETR
Launch vehicle
Mass (kg)
RCS (m²)

Purposes: comms

External: N2YO · Heavens-Above · Gunter

§ Orbital elements

Epoch: 2026-05-24T12:13:34.529952Z

Period
95.44 min
Inclination
53.2133°
Eccentricity
0.0001377
Mean motion
15.08840877 rev/d
Perigee alt
538.8 km
Apogee alt
540.7 km
Semi-major
6,917.9 km
B*
-2.0225e-6
RAAN
183.7560°
Arg perigee
78.9789°
Mean anomaly
281.1358°
Rev number
21,280

§ Raw data

STARLINK-40981 53153U 22083X   26144.50942743 -.00000320  00000+0 -20225-5 0  99952 53153  53.2133 183.7560 0001377  78.9789 281.1358 15.08840877212801

JSON: /api/v1/satellites/53153 · /tle

For live sub-satellite position, see the globe view (requires WebGL).

§ Visibility from observer

Set your observer location to see the next 7 days of passes ≥ 10°. The values pass through the URL so the page stays shareable.

No JS? Fill the form by hand. The geolocation button needs JavaScript.